EW6230 Weather Reports


time (UTC)temp
F
wind
direction
speed
knots
gust
knots
rain 1hr
in
rain 24hr
in
rain mn
in
humidity
%
barometer
mb
20260507224519 61 248 0.0 0.0 0.00 0.00 0.00 61 1015.0
20260507223014 62 244 0.0 0.0 0.00 0.00 0.00 61 1015.1
20260507221509 63 227 0.0 0.9 0.00 0.00 0.00 60 1015.2
20260507220005 64 111 0.0 0.9 0.00 0.00 0.00 59 1015.3
20260507214500 64 116 0.0 0.9 0.00 0.00 0.00 61 1015.4
20260507213108 63 337 0.0 0.9 0.00 0.00 0.00 60 1015.5
20260507211553 62 49 0.0 0.9 0.00 0.00 0.00 61 1015.7
20260507210053 63 36 0.0 0.9 0.00 0.00 0.00 61 1015.9
20260507204556 63 333 0.0 0.9 0.00 0.00 0.00 61 1016.1
20260507203040 62 46 0.0 0.9 0.00 0.00 0.00 62 1016.3
20260507201539 62 358 0.0 0.9 0.00 0.00 0.00 61 1016.5
20260507200036 62 301 0.0 0.9 0.00 0.00 0.00 61 1016.5
20260507194526 62 212 0.0 2.6 0.00 0.00 0.00 61 1016.5
20260507193027 61 193 0.0 2.6 0.00 0.00 0.00 62 1016.6
20260507191517 60 352 0.0 0.9 0.00 0.00 0.00 62 1016.7
20260507190028 60 155 0.0 2.6 0.00 0.00 0.00 62 1016.7
20260507184508 59 3 0.0 0.9 0.00 0.00 0.00 62 1016.8
20260507183011 59 6 0.0 0.9 0.00 0.00 0.00 62 1016.8
20260507181559 59 27 0.0 0.9 0.00 0.00 0.00 62 1016.8
20260507180104 59 304 0.0 1.7 0.00 0.00 0.00 62 1016.8
20260507174552 59 296 0.0 0.9 0.00 0.00 0.00 62 1016.9
20260507173053 58 343 0.0 0.9 0.00 0.00 0.00 62 1016.9
20260507171544 59 290 0.0 0.0 0.00 0.00 0.00 62 1016.9
20260507170039 59 266 0.0 0.0 0.00 0.00 0.00 62 1016.9
20260507164537 58 266 0.0 0.0 0.00 0.00 0.00 62 1016.9
20260507163031 57 350 0.0 0.9 0.00 0.00 0.00 62 1017.1
20260507161527 57 11 0.0 0.0 0.00 0.00 0.00 62 1017.2
20260507160021 58 12 0.0 0.0 0.00 0.00 0.00 62 1017.2
20260507154516 56 12 0.0 0.0 0.00 0.00 0.00 52 1017.3
20260507153012 56 6 0.0 0.0 0.00 0.00 0.00 1 1017.3
20260507151507 52 5 0.0 0.0 0.00 0.00 0.00 1 1017.4
20260507150003 47 5 0.0 0.0 0.00 0.00 0.00 1 1017.4
20260507144559 0 0.0 0.0 0.00 0.00 0.00 1017.4
20260507143054 0 0.0 0.0 0.00 0.00 0.00 1017.3
20260507141554 0 0.0 0.0 0.00 0.00 0.00 1017.4
20260507140104 0 0.0 0.0 0.00 0.00 0.00 1017.2
20260507134541 0 0.0 0.0 0.00 0.00 0.00 1017.1
20260507133037 0 0.0 0.0 0.00 0.00 0.00 1017.1
20260507131535 0 0.0 0.0 0.00 0.00 0.00 1017.1
20260507130027 0 0.0 0.0 0.00 0.00 0.00 1017.1
20260507124525 42 1 0.0 0.0 0.00 0.00 0.00 1 1017.1
20260507123019 43 5 0.0 0.9 0.00 0.00 0.00 1 1017.2
20260507121514 43 5 0.0 0.9 0.00 0.00 0.00 1 1017.2
20260507120010 44 5 0.0 0.9 0.00 0.00 0.00 1 1017.3
20260507114506 44 5 0.0 0.0 0.00 0.00 0.00 1 1017.3
20260507113002 45 5 0.0 0.9 0.00 0.00 0.00 1 1017.4
20260507111557 45 248 0.0 0.0 0.00 0.00 0.00 1 1017.3
20260507110053 45 248 0.0 0.9 0.00 0.00 0.00 1 1017.2
20260507104548 45 255 0.0 0.0 0.00 0.00 0.00 1 1017.3
20260507103043 46 255 0.0 0.0 0.00 0.00 0.00 1 1017.4
20260507101545 46 255 0.0 0.0 0.00 0.00 0.00 1 1017.5
20260507100037 46 255 0.0 0.0 0.00 0.00 0.00 1 1017.6
20260507094531 46 254 0.0 0.0 0.00 0.00 0.00 1 1017.5
20260507093036 47 255 0.0 0.0 0.00 0.00 0.00 1 1017.5
20260507091522 47 255 0.0 0.0 0.00 0.00 0.00 1 1017.5
20260507090028 48 255 0.0 0.0 0.00 0.00 0.00 1 1017.8
20260507084513 48 255 0.0 0.0 0.00 0.00 0.00 1 1017.8
20260507083015 48 254 0.0 0.9 0.00 0.00 0.00 1 1017.6
20260507081504 48 178 0.0 0.0 0.00 0.00 0.00 1 1017.7
20260507080135 48 178 0.0 0.0 0.00 0.00 0.00 1 1017.5
20260507074603 48 178 0.0 0.0 0.00 0.00 0.00 1 1017.4
20260507073059 49 178 0.0 0.0 0.00 0.00 0.00 1 1017.3
20260507071559 49 178 0.0 0.0 0.00 0.00 0.00 1 1017.2
20260507070042 50 178 0.0 0.0 0.00 0.00 0.00 1 1017.3
20260507064537 50 177 0.0 0.0 0.00 0.00 0.00 1 1017.2
20260507063038 51 177 0.0 0.0 0.00 0.00 0.00 1 1017.2
20260507061529 51 160 0.0 0.0 0.00 0.00 0.00 1 1017.3
20260507060024 51 163 0.0 0.0 0.00 0.00 0.00 1 1017.3
20260507054520 51 163 0.0 0.0 0.00 0.00 0.00 1 1017.4
20260507053016 51 163 0.0 0.0 0.00 0.00 0.00 1 1017.3
20260507051511 51 163 0.0 0.0 0.00 0.00 0.00 1 1017.4
20260507050008 51 163 0.0 0.0 0.00 0.00 0.00 1 1017.4
20260507044502 51 163 0.0 0.0 0.00 0.00 0.00 1 1017.5
20260507043059 52 243 0.0 0.9 0.00 0.00 0.00 1 1017.4
20260507041600 52 246 0.0 0.0 0.00 0.00 0.00 1 1017.3
20260507040058 52 126 0.0 0.9 0.00 0.00 0.00 1 1017.3
20260507034554 52 140 0.0 0.9 0.00 0.00 0.00 1 1017.2
20260507033043 53 141 0.0 0.0 0.00 0.00 0.00 1 1017.0
20260507031535 53 114 0.0 0.9 0.00 0.00 0.00 1 1016.9
20260507030032 53 82 0.0 0.0 0.00 0.00 0.00 1 1016.9
20260507024526 53 82 0.0 0.0 0.00 0.00 0.00 1 1017.0
20260507023022 54 82 0.0 0.0 0.00 0.00 0.00 1 1016.9
20260507021517 54 196 0.0 0.0 0.00 0.00 0.00 1 1017.0
20260507020013 54 196 0.0 0.0 0.00 0.00 0.00 1 1017.0
20260507014509 54 165 0.0 0.0 0.00 0.00 0.00 1 1016.9
20260507013005 54 165 0.0 0.0 0.00 0.00 0.00 5 1016.8
20260507011605 54 165 0.0 0.0 0.00 0.00 0.00 4 1016.8
20260507010056 55 166 0.0 0.0 0.00 0.00 0.00 7 1016.8
20260507004551 55 155 0.0 0.0 0.00 0.00 0.00 3 1016.8
20260507003047 55 150 0.0 0.0 0.00 0.00 0.00 8 1016.8
20260507001550 55 150 0.0 0.0 0.00 0.00 0.00 12 1016.7
20260507000040 55 149 0.0 0.0 0.00 0.00 0.00 11 1016.8
20260506234542 55 244 0.0 0.0 0.00 0.00 0.00 8 1016.7
20260506233030 55 143 0.0 0.0 0.00 0.00 0.00 7 1016.7
20260506231526 55 144 0.0 0.0 0.00 0.00 0.00 6 1016.8
20260506230020 54 150 0.0 0.0 0.00 0.00 0.00 7 1016.8